| time (UTC) | temp F | wind direction | speed MPH | gust MPH | rain 1hr in | rain 24hr in | rain mn in | humidity % | barometer mb |
| 20260506083050 | 43 | 157 | 4.0 | 9.0 | 0.00 | 0.00 | 0.00 | 79 | 1017.3 |
| 20260506081544 | 43 | 143 | 1.0 | 6.0 | 0.00 | 0.00 | 0.00 | 78 | 1017.3 |
| 20260506073054 | 42 | 74 | 0.0 | 2.0 | 0.00 | 0.00 | 0.00 | 79 | 1017.3 |
| 20260506071553 | 41 | 0 | 0.0 | 2.0 | 0.00 | 0.00 | 0.00 | 81 | 1017.3 |
| 20260506061555 | 38 | 0 | 0.0 | 0.0 | 0.00 | 0.00 | 0.00 | 89 | 1017.4 |
| 20260506050105 | 36 | 344 | 1.0 | 4.0 | 0.00 | 0.00 | 0.00 | 89 | 1017.6 |
| 20260506044551 | 35 | 0 | 0.0 | 2.0 | 0.00 | 0.00 | 0.00 | 89 | 1017.6 |
| 20260506043043 | 35 | 0 | 0.0 | 0.0 | 0.00 | 0.00 | 0.00 | 88 | 1017.5 |
| 20260506041551 | 35 | 0 | 0.0 | 0.0 | 0.00 | 0.00 | 0.00 | 86 | 1017.4 |
| 20260506040100 | 36 | 0 | 0.0 | 1.0 | 0.00 | 0.00 | 0.00 | 85 | 1017.5 |
| 20260506034550 | 36 | 0 | 0.0 | 0.0 | 0.00 | 0.00 | 0.00 | 85 | 1017.5 |
| 20260506033047 | 36 | 0 | 0.0 | 1.0 | 0.00 | 0.00 | 0.00 | 84 | 1017.4 |
| 20260506031552 | 36 | 0 | 0.0 | 2.0 | 0.00 | 0.00 | 0.00 | 84 | 1017.6 |
| 20260506030055 | 36 | 0 | 0.0 | 1.0 | 0.00 | 0.00 | 0.00 | 84 | 1017.6 |
| 20260506024557 | 36 | 332 | 0.0 | 2.0 | 0.00 | 0.00 | 0.00 | 83 | 1017.6 |
| 20260506023050 | 36 | 0 | 0.0 | 2.0 | 0.00 | 0.00 | 0.00 | 83 | 1017.6 |
| 20260506021559 | 36 | 302 | 0.0 | 2.0 | 0.00 | 0.00 | 0.00 | 82 | 1017.8 |
| 20260506020044 | 36 | 0 | 0.0 | 2.0 | 0.00 | 0.00 | 0.00 | 82 | 1017.7 |
| 20260506014551 | 36 | 302 | 0.0 | 1.0 | 0.00 | 0.00 | 0.00 | 81 | 1017.8 |
| 20260506013057 | 37 | 0 | 0.0 | 0.0 | 0.00 | 0.00 | 0.00 | 81 | 1017.9 |
| 20260506011603 | 37 | 0 | 0.0 | 1.0 | 0.00 | 0.00 | 0.00 | 82 | 1018.1 |
| 20260506010050 | 37 | 0 | 0.0 | 2.0 | 0.00 | 0.00 | 0.00 | 81 | 1018.1 |
| 20260506004553 | 36 | 0 | 0.0 | 1.0 | 0.00 | 0.00 | 0.00 | 82 | 1018.1 |
| 20260506003054 | 36 | 0 | 0.0 | 2.0 | 0.00 | 0.00 | 0.00 | 82 | 1018.2 |
| 20260506001552 | 37 | 0 | 0.0 | 0.0 | 0.00 | 0.00 | 0.00 | 82 | 1018.2 |
| 20260506000057 | 37 | 0 | 0.0 | 2.0 | 0.00 | 0.00 | 0.00 | 82 | 1018.3 |
| 20260505234602 | 37 | 0 | 0.0 | 0.0 | 0.00 | 0.00 | 0.00 | 82 | 1018.3 |
| 20260505233053 | 37 | 0 | 0.0 | 0.0 | 0.00 | 0.00 | 0.00 | 81 | 1018.3 |
| 20260505231605 | 37 | 0 | 0.0 | 0.0 | 0.00 | 0.00 | 0.00 | 82 | 1018.4 |
| 20260505230050 | 38 | 0 | 0.0 | 1.0 | 0.00 | 0.00 | 0.00 | 82 | 1018.5 |
| 20260505224544 | 38 | 0 | 0.0 | 0.0 | 0.00 | 0.00 | 0.00 | 81 | 1018.3 |
| 20260505223057 | 38 | 0 | 0.0 | 0.0 | 0.00 | 0.00 | 0.00 | 81 | 1018.3 |
| 20260505221557 | 39 | 0 | 0.0 | 0.0 | 0.00 | 0.00 | 0.00 | 81 | 1018.3 |
| 20260505220052 | 40 | 0 | 0.0 | 2.0 | 0.00 | 0.00 | 0.00 | 81 | 1018.3 |
| 20260505214612 | 40 | 0 | 0.0 | 3.0 | 0.00 | 0.00 | 0.00 | 80 | 1018.4 |
| 20260505213057 | 41 | 48 | 2.0 | 4.0 | 0.00 | 0.00 | 0.00 | 80 | 1018.3 |
| 20260505211545 | 41 | 0 | 1.0 | 3.0 | 0.00 | 0.00 | 0.00 | 79 | 1018.4 |
| 20260505210047 | 41 | 49 | 1.0 | 4.0 | 0.00 | 0.00 | 0.00 | 79 | 1018.4 |
| 20260505204551 | 42 | 0 | 1.0 | 6.0 | 0.00 | 0.00 | 0.00 | 78 | 1018.5 |
| 20260505203053 | 42 | 94 | 1.0 | 9.0 | 0.00 | 0.00 | 0.00 | 77 | 1018.4 |
| 20260505201554 | 42 | 92 | 3.0 | 7.0 | 0.00 | 0.00 | 0.00 | 76 | 1018.3 |
| 20260505200059 | 43 | 102 | 4.0 | 9.0 | 0.00 | 0.00 | 0.00 | 75 | 1018.2 |
| 20260505194559 | 43 | 86 | 3.0 | 6.0 | 0.00 | 0.00 | 0.00 | 75 | 1018.2 |
| 20260505193046 | 43 | 103 | 3.0 | 8.0 | 0.00 | 0.00 | 0.00 | 75 | 1018.1 |
| 20260505191551 | 43 | 102 | 2.0 | 9.0 | 0.00 | 0.00 | 0.00 | 76 | 1018.1 |
| 20260505190047 | 44 | 90 | 3.0 | 9.0 | 0.00 | 0.00 | 0.00 | 75 | 1018.1 |
| 20260505184545 | 44 | 104 | 1.0 | 6.0 | 0.00 | 0.00 | 0.00 | 75 | 1017.9 |
| 20260505183103 | 44 | 102 | 2.0 | 8.0 | 0.00 | 0.00 | 0.00 | 75 | 1018.1 |
| 20260505181551 | 44 | 75 | 2.0 | 10.0 | 0.00 | 0.00 | 0.00 | 74 | 1018.0 |
| 20260505180052 | 45 | 124 | 4.0 | 11.0 | 0.00 | 0.00 | 0.00 | 74 | 1018.0 |
| 20260505174558 | 45 | 105 | 4.0 | 8.0 | 0.00 | 0.00 | 0.00 | 73 | 1017.9 |
| 20260505173051 | 46 | 132 | 2.0 | 10.0 | 0.00 | 0.00 | 0.00 | 73 | 1018.0 |
| 20260505171551 | 46 | 112 | 4.0 | 11.0 | 0.00 | 0.00 | 0.00 | 74 | 1018.0 |
| 20260505170057 | 47 | 111 | 3.0 | 14.0 | 0.00 | 0.00 | 0.00 | 73 | 1017.9 |
| 20260505164551 | 48 | 119 | 1.0 | 10.0 | 0.00 | 0.00 | 0.00 | 72 | 1017.7 |
| 20260505163048 | 49 | 119 | 3.0 | 9.0 | 0.00 | 0.00 | 0.00 | 69 | 1017.7 |
| 20260505161557 | 50 | 111 | 3.0 | 12.0 | 0.00 | 0.00 | 0.00 | 69 | 1017.7 |
| 20260505153059 | 51 | 97 | 5.0 | 13.0 | 0.00 | 0.00 | 0.00 | 72 | 1017.5 |
| 20260505151548 | 49 | 68 | 5.0 | 12.0 | 0.00 | 0.00 | 0.00 | 75 | 1017.5 |
| 20260505140111 | 48 | 125 | 3.0 | 10.0 | 0.00 | 0.00 | 0.00 | 78 | 1017.2 |
| 20260505124602 | 52 | 32 | 5.0 | 12.0 | 0.00 | 0.00 | 0.00 | 64 | 1016.9 |
| 20260505123056 | 52 | 27 | 8.0 | 11.0 | 0.00 | 0.00 | 0.00 | 65 | 1016.9 |
| 20260505121559 | 52 | 37 | 5.0 | 11.0 | 0.00 | 0.00 | 0.00 | 66 | 1016.8 |
| 20260505120053 | 52 | 355 | 9.0 | 14.0 | 0.00 | 0.00 | 0.00 | 65 | 1016.7 |
| 20260505114557 | 51 | 9 | 8.0 | 14.0 | 0.00 | 0.00 | 0.00 | 67 | 1016.7 |
| 20260505113059 | 51 | 19 | 8.0 | 16.0 | 0.00 | 0.00 | 0.00 | 69 | 1016.7 |
| 20260505111547 | 50 | 36 | 8.0 | 16.0 | 0.00 | 0.00 | 0.00 | 71 | 1016.8 |
| 20260505101553 | 50 | 33 | 9.0 | 18.0 | 0.00 | 0.00 | 0.00 | 78 | 1016.4 |
| 20260505100049 | 48 | 101 | 9.0 | 17.0 | 0.00 | 0.00 | 0.00 | 83 | 1016.3 |
| 20260505094543 | 48 | 24 | 9.0 | 19.0 | 0.00 | 0.00 | 0.00 | 79 | 1016.3 |
| 20260505093050 | 49 | 9 | 11.0 | 19.0 | 0.00 | 0.00 | 0.00 | 73 | 1016.2 |
| 20260505091600 | 51 | 49 | 6.0 | 15.0 | 0.00 | 0.00 | 0.00 | 69 | 1015.9 |
| 20260505090045 | 50 | 338 | 5.0 | 10.0 | 0.00 | 0.00 | 0.00 | 65 | 1015.6 |
| 20260505084546 | 50 | 44 | 4.0 | 12.0 | 0.00 | 0.00 | 0.00 | 67 | 1015.5 |